Miscellaneous Local Product
Issued by NWS Hastings, NE

Home | Current Version | Previous Version | Graphics & Text | Print | Product List | Glossary On
Versions: 1 2 3 4 5 6 7 8 9 10 11 12 13 14 15 16 17 18 19 20 21 22 23 24 25 26 27 28 29 30 31 32 33 34 35 36 37 38 39 40 41 42 43 44 45 46 47 48 49 50
613
AXUS43 KGID 271202
MISGRI

GID CWA HOURLY WEATHER ROUNDUP
NATIONAL WEATHER SERVICE HASTINGS NE
700 AM CDT SAT MAY 27 2017

NOTE: "FAIR" INDICATES FEW OR NO CLOUDS BELOW 12,000 FEET WITH NO
SIGNIFICANT WEATHER AND/OR OBSTRUCTIONS TO VISIBILITY.

...SOUTH CENTRAL NEBRASKA...

CITY           SKY/WX    TMP DP  RH WIND       PRES   REMARKS
GRAND ISLAND   CLOUDY    57  50  77 NW21      29.96R
HASTINGS       CLOUDY    58  50  75 SE8       29.88F
KEARNEY        CLOUDY    55  48  76 N10       29.92S
ORD            CLOUDY    55  50  83 SE3       29.92R
YORK           LGT RAIN  57  52  82 CALM      29.97R
AURORA         DRIZZLE   56  52  84 SE23G29   29.83F
LEXINGTON      CLOUDY    55  51  88 NE13      29.91S
HOLDREGE       CLOUDY    55  51  86 NE16      29.86F
HEBRON         RAIN      58  56  92 N9        29.90F

...NEBRASKA PANHANDLE...

CITY           SKY/WX    TMP DP  RH WIND       PRES   REMARKS
CHADRON        CLOUDY    50  48  93 SW3       30.02R
ALLIANCE       CLOUDY    49  47  93 NW16      30.00R
SCOTTSBLUFF    CLOUDY    50  47  89 NW3       30.01S
SIDNEY         CLOUDY    50  48  93 N9        30.00R

...WESTERN AND NORTH CENTRAL NEBRASKA...

CITY           SKY/WX    TMP DP  RH WIND       PRES   REMARKS
VALENTINE      CLOUDY    54  47  77 CALM      29.97S
AINSWORTH      CLOUDY    52  50  92 N7        29.98R
ONEILL         CLOUDY    56  53  91 SE5       29.95F
BROKEN BOW     MOCLDY    53  51  93 N3        29.94R
IMPERIAL       CLOUDY    51  49  92 N7        29.95R
NORTH PLATTE   CLOUDY    52  50  93 NE12      29.94S
MCCOOK         MOCLDY    54  53  97 N8        29.90R

...EASTERN NEBRASKA...

CITY           SKY/WX    TMP DP  RH WIND       PRES   REMARKS
NORFOLK        LGT RAIN  55  50  83 NW7       29.93S
SO SIOUX CITY  CLOUDY    56  50  80 W6        29.91R
TEKAMAH        CLOUDY    57  51  80 NW3       29.89R
ALBION         CLOUDY    57  51  79 NE3       29.93S
OMAHA EPPLEY   CLOUDY    59  50  72 NW8       29.88S
OFFUTT AFB     PTSUNNY   60  48  64 NE6       29.86F
MILLARD        CLOUDY    65  47  52 CALM      29.88S
LINCOLN        TSTM      59  52  77 NW9       29.90R
NEBRASKA CITY  CLOUDY    64  44  48 NE8       29.86F
BEATRICE       CLOUDY    59  55  85 NW9       29.93R
FALLS CITY     PTSUNNY   65  55  70 E3        29.85R

...NORTHERN KANSAS...

CITY           SKY/WX    TMP DP  RH WIND       PRES   REMARKS
GOODLAND       CLOUDY    52  51  97 NW16      29.93R
HILL CITY      CLOUDY    58  57  97 CALM      29.87F
NORTON         LGT RAIN  57  50  77 E5        29.83R
PHILLIPSBURG   LGT RAIN  59  59 100 E15       29.83F
SMITH CENTER   LGT RAIN  57  54  88 CALM      29.92R
HAYS           TSTM      59  56  89 E10       29.89F
RUSSELL        TSTM      59  57  93 N9        29.92R
CONCORDIA      LGT RAIN  58  58 100 NE7G20    29.83F
SALINA         CLOUDY    62  59  90 N6        29.88F
TOPEKA         CLOUDY    66  66 100 W12       29.90R



USA.gov is the U.S. government's official web portal to all federal, state and local government web resources and services.